Regional Weather Roundup
Issued by NWS Boston, MA

Home | Current Version | Previous Version | Text Only | Print | Product List | Glossary On
Versions: 1 2 3 4 5 6 7 8 9 10 11 12 13 14 15 16 17 18 19 20 21 22 23 24 25 26 27 28 29 30 31 32 33 34 35 36 37 38 39 40 41 42 43 44 45 46 47 48 49 50
000
ASUS41 KBOX 171210
RWRBOX

REGIONAL WEATHER ROUNDUP
NATIONAL WEATHER SERVICE TAUNTON MA
700 AM EST TUE JAN 17 2017

NOTE:  "FAIR" INDICATES FEW OR NO CLOUDS BELOW 12,000 FEET WITH NO
SIGNIFICANT WEATHER AND/OR OBSTRUCTIONS TO VISIBILITY.

MAZALL-171300-
EASTERN MASSACHUSETTS

CITY           SKY/WX    TMP DP  RH WIND       PRES   REMARKS
BOSTON         PTCLDY    34  19  54 NW6       30.22R WCI  29
6HR MIN TEMP:  32; 6HR MAX TEMP:  35;

BEVERLY        PTCLDY    27  17  66 CALM      30.21R
LAWRENCE       CLOUDY    26  18  71 CALM      30.22R
BEDFORD        MOCLDY    20  14  77 CALM      30.21R
BLUE HILL        N/A     31  16  54 NW13      30.17S WCI  21
NORWOOD        CLOUDY    21  18  88 CALM      30.21S
MARSHFIELD     PTCLDY    27  21  80 W5        30.22R WCI  21
PLYMOUTH       MOCLDY    25  20  81 CALM      30.22R
TAUNTON        CLOUDY    23  20  88 CALM      30.20S
NEW BEDFORD    PTCLDY    33  25  72 CALM      30.21R
$$

MAZALL-171300-
CAPE COD AND THE ISLANDS

CITY           SKY/WX    TMP DP  RH WIND       PRES   REMARKS
FALMOUTH       PTCLDY    27  23  86 MISG      30.22S
HYANNIS        PTCLDY    27  21  78 CALM      30.19F
CHATHAM        PTCLDY    31  25  78 NW3       30.21S
PROVINCETOWN   CLEAR     35  27  72 W7        30.21S WCI  29
NANTUCKET      MOCLDY    38  32  79 W7        30.21S
MARTHAS VNYRD  CLOUDY    38  30  73 CALM      30.21S
$$

MAZALL-171300-
CENTRAL AND WESTERN MASSACHUSETTS

CITY           SKY/WX    TMP DP  RH WIND       PRES   REMARKS
WORCESTER      CLOUDY    31  14  49 W6        30.16S WCI  25
6HR MIN TEMP:  31; 6HR MAX TEMP:  33;

FITCHBURG      CLEAR     28  19  69 N6        30.21S WCI  22
ORANGE         CLOUDY    16  14  92 CALM      30.20S
SPRINGFIELD    CLOUDY    24  20  86 CALM      30.20S
WESTFIELD      CLOUDY    27  23  85 CALM      30.21S
NORTH ADAMS    CLOUDY    15  12  88 CALM      30.22S
PITTSFIELD     CLOUDY    23  19  85 CALM      30.16F
$$

RIZALL-171300-
RHODE ISLAND

CITY           SKY/WX    TMP DP  RH WIND       PRES   REMARKS
PROVIDENCE     MOCLDY    30  24  78 CALM      30.22R
6HR MIN TEMP:  29; 6HR MAX TEMP:  35;

NEWPORT        CLOUDY    34  28  79 CALM      30.20F
SMITHFIELD     PTCLDY    32  19  58 CALM      30.20R
WESTERLY       CLOUDY    37  26  64 CALM      30.22F
$$

CTZALL-171300-
CONNECTICUT

CITY           SKY/WX    TMP DP  RH WIND       PRES   REMARKS
BRADLEY INTL   MOCLDY    28  24  85 W5        30.21F WCI  23
6HR MIN TEMP:  26; 6HR MAX TEMP:  33;

HARTFORD       CLOUDY    31  27  85 CALM      30.22S
BRIDGEPORT     CLOUDY    36  28  73 CALM      30.22S
DANBURY        CLOUDY    33  27  78 CALM      30.22S
GROTON         CLOUDY    35  29  78 W3        30.22S
NEW HAVEN      CLOUDY    36  29  75 CALM      30.22S
CHESTER        FAIR      34  27  75 CALM      30.20S
MERIDEN        CLOUDY    33  28  81 CALM      30.22S
WILLIMANTIC    CLOUDY    30  25  81 CALM      30.22S
OXFORD         CLOUDY    34  23  64 CALM      30.20S
$$

MEZ002-015-021-024-NHZ003-005-008-011-012-014-VTZ005-008-171300-
NORTHERN NEW ENGLAND

CITY           SKY/WX    TMP DP  RH WIND       PRES   REMARKS
PORTLAND ME    PTCLDY    20  15  81 N3        30.22R
6HR MIN TEMP:  19; 6HR MAX TEMP:  28;

BANGOR ME      CLOUDY    31  21  66 N8        30.20R WCI  23
CONCORD NH     CLOUDY    15  11  83 CALM      30.22R
MANCHESTER NH  NOT AVBL
NASHUA NH      NOT AVBL
PORTSMOUTH NH  MOCLDY    27  15  60 W5        30.20R WCI  22
JAFFREY NH     NOT AVBL
KEENE NH       NOT AVBL
BURLINGTON VT  CLOUDY    19  15  84 E3        30.24R
MT. WASHINGTON MOCLDY    19  12  73 NW47G53     N/A  WCI  -3
$$

NYZ052-076-171300-
EASTERN NEW YORK

CITY           SKY/WX    TMP DP  RH WIND       PRES   REMARKS
ALBANY         PTCLDY    20  17  88 CALM      30.24R
6HR MIN TEMP:  19; 6HR MAX TEMP:  24;

NEW YORK CITY  CLOUDY    42  29  59 W5        30.22S
6HR MIN TEMP:  41; 6HR MAX TEMP:  43;

$$

ANZALL-171300-
MARINE OBSERVATIONS

STATION/POSITION TIME  TEMP    WIND        PRES    VSBY  WAVE
                       AIR SEA DIR/SP/G                  HT/PER
                 (UTC) (F)     (DEG/KT/KT) (MB)    (MI)  (FT/S)
BOSTON BUOY      1050   39 45  290/ 12/ 14 1022.2          1/ 3
BUZZARDS BAY     1100   39     260/ 13/ 15 1023.5R
NANTUCKET SOUND  1050   40 40  280/ 10/ 12 1023.0          1
MASS BAY-STELLWA 1104   38 44  290/ 10/ 12 1021.9R  1 7/8  1/ 3
ISLE OF SHOALS   1100   35     300/ 14/ 17 1021.9R
S OF BLOCK IS    1155      45                N/A           3/ 6
$$

......................KEY.........................
  SKY/WX - SKY CONDITION/PRESENT WEATHER
  TMP    - TEMPERATURE IN FAHRENHEIT
  DWPT   - DEWPOINT IN FAHRENHEIT
  RH     - RELATIVE HUMIDITY IN PERCENT
  WIND   - DIRECTION AND SPEED IN MPH
  PRES   - MEAN SEA LEVEL PRESSURE IN INCHES OF HG
  WCI    - WIND CHILL INDEX
  VSB    - VISIBILITY IN MILES
  HX     - HEAT INDEX
  TC     - TEMPERATURE IN CELSIUS
  VRB    - VARIABLE WIND DIRECTION
  N/A    - NOT AVAILABLE



USA.gov is the U.S. government's official web portal to all federal, state and local government web resources and services.